Nassau, Bahamas

9:33 AM EST on February 23, 2017 (GMT -0500)
Nassau International

Weather History for MYNN - January, 2015

Change the Weather History Date:

Tuesday, January 20, 2015

  Actual Average Record
Temperature  
Mean Temperature 68 °F -  
Max Temperature 78 °F 78 °F 86 °F (2008)
Min Temperature 59 °F 62 °F 51 °F (1997)
Cooling Degree Days 4    
Growing Degree Days 18 (Base 50)    
Moisture  
Dew Point 60 °F    
Average Humidity 69    
Maximum Humidity 88    
Minimum Humidity 44    
Precipitation  
Precipitation 0.00 in 0.06 in - ()
Sea Level Pressure  
Sea Level Pressure 30.07 in    
Wind  
Wind Speed 3 mph ()    
Max Wind Speed 12 mph    
Max Gust Speed -    
Visibility 6.2 miles    
Events      
Averages and records for this station are not official NWS values.
T = Trace of Precipitation, MM = Missing Value Source: Averaged Metar Reports

Daily Weather History Graph

Daily Weather History Graph

Search for Another Location

Airport or City:

Trip Planner

Search our weather history database for the weather conditions in past years. The results will help you decide how hot, cold, wet, or windy it might be!

Date:

Astronomy

Jan. 20, 2015 Rise Set
Actual Time 6:56 AM EST 5:45 PM EST
Civil Twilight 6:31 AM EST 6:10 PM EST
Nautical Twilight 6:04 AM EST 6:37 PM EST
Astronomical Twilight 5:36 AM EST 7:05 PM EST
Moon 6:44 AM EST (1/20) 6:12 PM EST (1/20)
Length of Visible Light 11h 38m
Length of Day
10h 49m
New Moon, 0% of the Moon is Illuminated
Jan 20
New Moon
Jan 26
First Quarter
Feb 3
Full
Feb 11
Last Quarter
Feb 18
New

Hourly Weather History & Observations

Time (EST) Temp. Dew Point Humidity Pressure Visibility Wind Dir Wind Speed Gust Speed Precip Events Conditions
12:00 AM 64.4 °F 55.4 °F 73% 30.09 in 6.2 mi Calm Calm - N/A   Scattered Clouds
1:00 AM 63 °F 59 °F 83% 30.10 in 4 mi Calm Calm - -   Smoke
1:00 AM 62.6 °F 59.0 °F 88% - - North - - N/A   Smoke
2:00 AM 64.4 °F 55.4 °F 73% 30.07 in 6.2 mi Calm Calm - N/A   Scattered Clouds
3:00 AM 62.6 °F 55.4 °F 77% 30.06 in 6.2 mi Calm Calm - N/A   Mostly Cloudy
5:00 AM 66.2 °F 57.2 °F 73% 30.04 in - Calm Calm - N/A   Smoke
6:00 AM 64.4 °F 57.2 °F 77% 30.05 in - North - - N/A   Smoke
7:00 AM 66 °F 59 °F 70% 30.06 in 4 mi ENE 2.3 mph - -   Smoke
7:00 AM 66.2 °F 59.0 °F 78% 30.06 in - ENE 2.3 mph - N/A   Smoke
8:00 AM 66.2 °F 57.2 °F 73% 30.11 in 5.6 mi Calm Calm - N/A   Smoke
9:00 AM 69.8 °F 57.2 °F 64% 30.11 in 5.6 mi East 4.6 mph - N/A   Smoke
10:00 AM 71.6 °F 60.8 °F 69% 30.12 in 5.6 mi ESE 6.9 mph - N/A   Smoke
12:00 PM 75.2 °F 57.2 °F 53% 30.12 in 6.2 mi NE 11.5 mph - N/A   Mostly Cloudy
1:00 PM 77 °F 59 °F 44% 30.09 in 8 mi SSE 9.2 mph - -   Partly Cloudy
1:00 PM 77.0 °F 59.0 °F 54% 30.09 in 6.2 mi SSE 9.2 mph - N/A   Mostly Cloudy
2:00 PM 75.2 °F 55.4 °F 50% 30.07 in 6.2 mi SSE 9.2 mph - N/A   Mostly Cloudy
3:00 PM 75.2 °F 59.0 °F 57% 30.05 in 6.2 mi SE 4.6 mph - N/A   Mostly Cloudy
4:00 PM 76 °F 63 °F 55% 30.05 in 8 mi ESE 4.6 mph - -   Scattered Clouds
4:00 PM 77.0 °F 62.6 °F 61% 30.07 in 6.2 mi ESE 4.6 mph - N/A   Mostly Cloudy
5:00 PM 73.4 °F 60.8 °F 65% 30.04 in 6.2 mi ESE 4.6 mph - N/A   Mostly Cloudy
6:00 PM 71.6 °F 60.8 °F 69% 30.05 in 6.2 mi ESE 3.5 mph - N/A   Mostly Cloudy
7:00 PM 72 °F 65 °F 73% 30.04 in 8 mi ESE 4.6 mph - -   Mostly Cloudy
7:00 PM 71.6 °F 64.4 °F 78% 30.03 in 6.2 mi ESE 4.6 mph - N/A   Mostly Cloudy
8:00 PM 71.6 °F 62.6 °F 73% 30.03 in 6.2 mi ESE 3.5 mph - N/A   Mostly Cloudy
9:00 PM 71.6 °F 62.6 °F 73% 30.04 in 6.2 mi ESE 3.5 mph - N/A   Mostly Cloudy
10:00 PM 69.8 °F 64.4 °F 83% 30.04 in 6.2 mi Variable 2.3 mph - N/A   Mostly Cloudy
11:00 PM 69.8 °F 62.6 °F 78% 30.05 in 6.2 mi Calm Calm - N/A   Partly Cloudy